Tracking 19476 objects as of 17-Jan-2019
HD Live streaming from Space Station
objects crossing your sky now

EXPLORER 36 (GEOS 2)

Track EXPLORER 36 (GEOS 2) now!
10-day predictions
EXPLORER 36 (GEOS 2) is classified as:


NORAD ID: 3093
Int'l Code: 1968-002A
Perigee: 1,088.7 km
Apogee: 1,580.2 km
Inclination: 105.8 °
Period: 112.2 minutes
Semi major axis: 7705 km
RCS: 1.4776 m2 (large)
Launch date: January 11, 1968
Source: United States (US)
Launch site: AIR FORCE WESTERN TEST RANGE (AFWTR)
aabbcc
Your satellite tracking list
Your tracking list is empty




NASA's NSSDC Master Catalog

Two Line Element Set (TLE):
1  3093U 68002A   19016.61625580 -.00000118 +00000-0 -14282-3 0  9993
2  3093 105.8031 224.2671 0318963 181.8736 225.0819 12.83530967389824
Source of the keplerian elements: AFSPC